| time (UTC) | temp C | wind direction | speed KPH | gust KPH | rain 1hr cm | rain 24hr cm | rain mn cm | humidity % | barometer mb |
| 20260510214201 | 5 | 32 | 1.6 | 16.1 | 0.00 | 0.00 | 0.00 | 50 | 1023.0 |
| 20260510211202 | 5 | 336 | 0.0 | 17.7 | 0.00 | 0.00 | 0.00 | 51 | 1022.7 |
| 20260510210201 | 5 | 355 | 4.8 | 12.9 | 0.00 | 0.00 | 0.00 | 51 | 1022.5 |
| 20260510204202 | 5 | 75 | 3.2 | 19.3 | 0.00 | 0.00 | 0.00 | 56 | 1022.5 |
| 20260510203202 | 5 | 75 | 3.2 | 19.3 | 0.00 | 0.00 | 0.00 | 56 | 1022.5 |
| 20260510202202 | 5 | 26 | 6.4 | 12.9 | 0.00 | 0.00 | 0.00 | 55 | 1022.3 |
| 20260510201202 | 5 | 26 | 6.4 | 12.9 | 0.00 | 0.00 | 0.00 | 55 | 1022.3 |
| 20260510200202 | 5 | 261 | 1.6 | 11.3 | 0.00 | 0.00 | 0.00 | 54 | 1022.1 |
| 20260510195202 | 5 | 261 | 1.6 | 11.3 | 0.00 | 0.00 | 0.00 | 54 | 1022.1 |
| 20260510194202 | 5 | 276 | 6.4 | 16.1 | 0.00 | 0.00 | 0.00 | 56 | 1022.0 |
| 20260510192203 | 5 | 64 | 3.2 | 14.5 | 0.00 | 0.00 | 0.00 | 57 | 1021.8 |
| 20260510191203 | 5 | 64 | 3.2 | 14.5 | 0.00 | 0.00 | 0.00 | 57 | 1021.8 |
| 20260510190203 | 5 | 227 | 1.6 | 12.9 | 0.00 | 0.00 | 0.00 | 56 | 1021.7 |
| 20260510185202 | 5 | 227 | 1.6 | 12.9 | 0.00 | 0.00 | 0.00 | 56 | 1021.7 |
| 20260510184202 | 5 | 337 | 1.6 | 20.9 | 0.00 | 0.00 | 0.00 | 60 | 1021.5 |
| 20260510183203 | 5 | 337 | 1.6 | 20.9 | 0.00 | 0.00 | 0.00 | 60 | 1021.5 |
| 20260510180202 | 5 | 349 | 11.3 | 14.5 | 0.00 | 0.00 | 0.00 | 54 | 1021.2 |
| 20260510175203 | 5 | 56 | 3.2 | 24.1 | 0.00 | 0.00 | 0.00 | 59 | 1021.2 |
| 20260510174202 | 5 | 56 | 3.2 | 24.1 | 0.00 | 0.00 | 0.00 | 59 | 1021.2 |
| 20260510173202 | 5 | 271 | 3.2 | 11.3 | 0.00 | 0.00 | 0.00 | 59 | 1021.0 |
| 20260510172204 | 5 | 271 | 3.2 | 11.3 | 0.00 | 0.00 | 0.00 | 59 | 1021.0 |
| 20260510171203 | 3 | 5 | 1.6 | 19.3 | 0.00 | 0.00 | 0.00 | 75 | 1021.1 |
| 20260510170204 | 3 | 5 | 1.6 | 19.3 | 0.00 | 0.00 | 0.00 | 75 | 1021.1 |
| 20260510165206 | 2 | 31 | 4.8 | 17.7 | 0.00 | 0.00 | 0.00 | 75 | 1021.1 |
| 20260510164203 | 2 | 31 | 4.8 | 17.7 | 0.00 | 0.00 | 0.00 | 75 | 1021.1 |
| 20260510163203 | 4 | 77 | 3.2 | 19.3 | 0.00 | 0.00 | 0.00 | 67 | 1020.3 |
| 20260510162203 | 4 | 77 | 3.2 | 19.3 | 0.00 | 0.00 | 0.00 | 67 | 1020.3 |
| 20260510155204 | 3 | 343 | 4.8 | 17.7 | 0.00 | 0.00 | 0.00 | 78 | 1020.2 |
| 20260510154204 | 3 | 343 | 4.8 | 17.7 | 0.00 | 0.00 | 0.00 | 78 | 1020.2 |
| 20260510153204 | 2 | 345 | 3.2 | 17.7 | 0.00 | 0.00 | 0.00 | 80 | 1020.1 |
| 20260510152203 | 2 | 345 | 3.2 | 17.7 | 0.00 | 0.00 | 0.00 | 80 | 1020.1 |
| 20260510151204 | 4 | 213 | 1.6 | 14.5 | 0.00 | 0.00 | 0.00 | 73 | 1019.5 |
| 20260510150204 | 4 | 213 | 1.6 | 14.5 | 0.00 | 0.00 | 0.00 | 73 | 1019.5 |
| 20260510145204 | 3 | 9 | 0.0 | 14.5 | 0.00 | 0.00 | 0.00 | 71 | 1019.3 |
| 20260510144204 | 3 | 225 | 3.2 | 12.9 | 0.00 | 0.00 | 0.00 | 68 | 1019.1 |
| 20260510143204 | 3 | 225 | 3.2 | 12.9 | 0.00 | 0.00 | 0.00 | 68 | 1019.1 |
| 20260510142205 | 2 | 281 | 3.2 | 11.3 | 0.00 | 0.00 | 0.00 | 78 | 1019.0 |
| 20260510141205 | 2 | 281 | 3.2 | 11.3 | 0.00 | 0.00 | 0.00 | 78 | 1019.0 |
| 20260510140204 | 2 | 108 | 3.2 | 9.7 | 0.00 | 0.00 | 0.00 | 81 | 1018.9 |
| 20260510135205 | 2 | 108 | 3.2 | 9.7 | 0.00 | 0.00 | 0.00 | 81 | 1018.9 |
| 20260510134204 | 2 | 350 | 4.8 | 11.3 | 0.00 | 0.00 | 0.00 | 84 | 1018.8 |
| 20260510133204 | 2 | 350 | 4.8 | 11.3 | 0.00 | 0.00 | 0.00 | 84 | 1018.8 |
| 20260510132204 | 2 | 16 | 3.2 | 12.9 | 0.00 | 0.00 | 0.00 | 85 | 1018.6 |
| 20260510131204 | 2 | 16 | 3.2 | 12.9 | 0.00 | 0.00 | 0.00 | 85 | 1018.6 |
| 20260510130204 | 1 | 10 | 1.6 | 8.0 | 0.00 | 0.00 | 0.00 | 87 | 1018.2 |
| 20260510125205 | 1 | 10 | 1.6 | 8.0 | 0.00 | 0.00 | 0.00 | 87 | 1018.2 |
| 20260510124205 | 1 | 9 | 6.4 | 6.4 | 0.00 | 0.00 | 0.00 | 89 | 1017.8 |
| 20260510123204 | 1 | 9 | 6.4 | 6.4 | 0.00 | 0.00 | 0.00 | 89 | 1017.8 |
| 20260510122205 | 0 | 334 | 1.6 | 8.0 | 0.00 | 0.00 | 0.00 | 90 | 1017.5 |
| 20260510121205 | 0 | 334 | 1.6 | 8.0 | 0.00 | 0.00 | 0.00 | 90 | 1017.5 |
| 20260510120205 | 0 | 325 | 1.6 | 8.0 | 0.00 | 0.00 | 0.00 | 89 | 1017.3 |
| 20260510115206 | 0 | 325 | 1.6 | 8.0 | 0.00 | 0.00 | 0.00 | 89 | 1017.3 |
| 20260510114205 | 0 | 296 | 3.2 | 6.4 | 0.00 | 0.00 | 0.00 | 90 | 1016.9 |
| 20260510113205 | 0 | 50 | 1.6 | 3.2 | 0.00 | 0.00 | 0.00 | 89 | 1016.7 |
| 20260510112205 | 0 | 50 | 1.6 | 3.2 | 0.00 | 0.00 | 0.00 | 89 | 1016.7 |
| 20260510111206 | 0 | 273 | 1.6 | 3.2 | 0.00 | 0.00 | 0.00 | 88 | 1016.4 |
| 20260510110205 | 0 | 273 | 1.6 | 3.2 | 0.00 | 0.00 | 0.00 | 88 | 1016.4 |
| 20260510105205 | 0 | 292 | 0.0 | 3.2 | 0.00 | 0.00 | 0.00 | 87 | 1016.1 |
| 20260510104206 | 0 | 292 | 0.0 | 3.2 | 0.00 | 0.00 | 0.00 | 87 | 1016.1 |
| 20260510103205 | 0 | 307 | 0.0 | 3.2 | 0.00 | 0.00 | 0.00 | 85 | 1015.8 |
| 20260510102205 | 0 | 307 | 0.0 | 3.2 | 0.00 | 0.00 | 0.00 | 85 | 1015.8 |
| 20260510101205 | 0 | 317 | 0.0 | 4.8 | 0.00 | 0.00 | 0.00 | 83 | 1015.5 |
| 20260510100205 | 0 | 317 | 0.0 | 4.8 | 0.00 | 0.00 | 0.00 | 83 | 1015.5 |
| 20260510095205 | 1 | 311 | 0.0 | 8.0 | 0.00 | 0.00 | 0.00 | 83 | 1015.5 |
| 20260510094206 | 1 | 311 | 0.0 | 8.0 | 0.00 | 0.00 | 0.00 | 83 | 1015.5 |
| 20260510093205 | 1 | 288 | 1.6 | 14.5 | 0.00 | 0.00 | 0.00 | 82 | 1015.4 |
| 20260510092206 | 1 | 288 | 1.6 | 14.5 | 0.00 | 0.00 | 0.00 | 82 | 1015.4 |
| 20260510091206 | 0 | 21 | 0.0 | 1.6 | 0.00 | 0.00 | 0.00 | 77 | 1014.9 |
| 20260510090206 | 0 | 21 | 0.0 | 1.6 | 0.00 | 0.00 | 0.00 | 77 | 1014.9 |
| 20260510085206 | 0 | 21 | 0.0 | 3.2 | 0.00 | 0.00 | 0.00 | 77 | 1014.7 |
| 20260510084206 | 0 | 21 | 0.0 | 3.2 | 0.00 | 0.00 | 0.00 | 77 | 1014.7 |
| 20260510083206 | 0 | 21 | 0.0 | 3.2 | 0.00 | 0.00 | 0.00 | 75 | 1014.4 |
| 20260510082207 | 0 | 21 | 0.0 | 3.2 | 0.00 | 0.00 | 0.00 | 71 | 1014.4 |
| 20260510081207 | 0 | 21 | 0.0 | 3.2 | 0.00 | 0.00 | 0.00 | 71 | 1014.4 |
| 20260510080207 | 1 | 20 | 0.0 | 1.6 | 0.00 | 0.00 | 0.00 | 69 | 1014.1 |
| 20260510075206 | 1 | 20 | 0.0 | 1.6 | 0.00 | 0.00 | 0.00 | 69 | 1014.1 |
| 20260510074207 | 1 | 20 | 0.0 | 6.4 | 0.00 | 0.00 | 0.00 | 68 | 1014.1 |
| 20260510073206 | 1 | 20 | 0.0 | 6.4 | 0.00 | 0.00 | 0.00 | 68 | 1014.1 |
| 20260510072206 | 2 | 20 | 0.0 | 6.4 | 0.00 | 0.00 | 0.00 | 67 | 1014.0 |
| 20260510071207 | 2 | 20 | 0.0 | 6.4 | 0.00 | 0.00 | 0.00 | 67 | 1014.0 |
| 20260510070207 | 2 | 278 | 1.6 | 3.2 | 0.00 | 0.00 | 0.00 | 65 | 1013.9 |
| 20260510064207 | 2 | 321 | 0.0 | 3.2 | 0.00 | 0.00 | 0.00 | 64 | 1013.9 |
| 20260510062207 | 2 | 247 | 0.0 | 3.2 | 0.00 | 0.00 | 0.00 | 63 | 1013.9 |
| 20260510061207 | 2 | 247 | 0.0 | 3.2 | 0.00 | 0.00 | 0.00 | 63 | 1013.9 |
| 20260510060208 | 3 | 247 | 1.6 | 3.2 | 0.00 | 0.00 | 0.00 | 61 | 1013.7 |
| 20260510055207 | 3 | 247 | 1.6 | 3.2 | 0.00 | 0.00 | 0.00 | 61 | 1013.7 |
| 20260510054208 | 3 | 247 | 0.0 | 6.4 | 0.00 | 0.00 | 0.00 | 61 | 1013.6 |
| 20260510053208 | 3 | 247 | 0.0 | 6.4 | 0.00 | 0.00 | 0.00 | 61 | 1013.6 |
| 20260510052208 | 3 | 244 | 3.2 | 8.0 | 0.00 | 0.00 | 0.00 | 60 | 1013.4 |
| 20260510051208 | 3 | 331 | 1.6 | 11.3 | 0.00 | 0.00 | 0.00 | 60 | 1013.4 |
| 20260510050207 | 3 | 331 | 1.6 | 11.3 | 0.00 | 0.00 | 0.00 | 60 | 1013.4 |
| 20260510015208 | 6 | 322 | 8.0 | 19.3 | 0.00 | 0.00 | 0.00 | 45 | 1010.9 |
| 20260510014209 | 6 | 322 | 8.0 | 19.3 | 0.00 | 0.00 | 0.00 | 45 | 1010.9 |
| 20260510013209 | 6 | 322 | 8.0 | 19.3 | 0.00 | 0.00 | 0.00 | 45 | 1010.9 |
| 20260510012208 | 6 | 322 | 8.0 | 19.3 | 0.00 | 0.00 | 0.00 | 45 | 1010.9 |
| 20260510011208 | 6 | 322 | 8.0 | 19.3 | 0.00 | 0.00 | 0.00 | 45 | 1010.9 |
| 20260510010208 | 6 | 322 | 8.0 | 19.3 | 0.00 | 0.00 | 0.00 | 45 | 1010.9 |
| 20260510005209 | 6 | 322 | 8.0 | 19.3 | 0.00 | 0.00 | 0.00 | 45 | 1010.9 |
| 20260510004209 | 6 | 322 | 8.0 | 19.3 | 0.00 | 0.00 | 0.00 | 45 | 1010.9 |
| 20260510003208 | 6 | 322 | 8.0 | 19.3 | 0.00 | 0.00 | 0.00 | 45 | 1010.9 |
| 20260510002209 | 7 | 48 | 1.6 | 14.5 | 0.00 | 0.00 | 0.00 | 44 | 1010.7 |
| 20260510001210 | 7 | 38 | 1.6 | 12.9 | 0.00 | 0.00 | 0.00 | 43 | 1010.5 |
| 20260510000211 | 7 | 38 | 1.6 | 12.9 | 0.00 | 0.00 | 0.00 | 43 | 1010.5 |
| 20260509235210 | 7 | 313 | 3.2 | 29.0 | 0.00 | 0.00 | 0.00 | 43 | 1010.2 |
| 20260509234209 | 7 | 313 | 3.2 | 29.0 | 0.00 | 0.00 | 0.00 | 43 | 1010.2 |
| 20260509233209 | 8 | 15 | 12.9 | 20.9 | 0.00 | 0.00 | 0.00 | 39 | 1009.8 |
| 20260509232209 | 8 | 15 | 12.9 | 20.9 | 0.00 | 0.00 | 0.00 | 39 | 1009.8 |
| 20260509231209 | 8 | 40 | 1.6 | 20.9 | 0.00 | 0.00 | 0.00 | 43 | 1009.5 |
| 20260509230209 | 8 | 40 | 1.6 | 20.9 | 0.00 | 0.00 | 0.00 | 43 | 1009.5 |
| 20260509225210 | 8 | 5 | 8.0 | 19.3 | 0.00 | 0.00 | 0.00 | 43 | 1009.4 |
| 20260509224209 | 8 | 5 | 8.0 | 19.3 | 0.00 | 0.00 | 0.00 | 43 | 1009.4 |
| 20260509223209 | 8 | 311 | 9.7 | 16.1 | 0.00 | 0.00 | 0.00 | 44 | 1009.2 |
| 20260509222210 | 8 | 311 | 9.7 | 16.1 | 0.00 | 0.00 | 0.00 | 44 | 1009.2 |
| 20260509221209 | 8 | 113 | 1.6 | 16.1 | 0.00 | 0.00 | 0.00 | 42 | 1009.0 |
| 20260509220210 | 8 | 113 | 1.6 | 16.1 | 0.00 | 0.00 | 0.00 | 42 | 1009.0 |
| 20260509215210 | 9 | 16 | 6.4 | 20.9 | 0.00 | 0.00 | 0.00 | 40 | 1008.9 |